TIME,DELAY(SENSOR),PRES,OXYGEN,RAWTEMP,T(OPTODE),TCPHASE,FLUOR,BETA(BETA700),BETA(BETA412),BETA(BETA440),CDOM,C(CSC),ED(ED412.40),ED(ED444.00),ED(ED489.70),ED(ED554.30),LU(LU411.80),LU(LU443.40),LU(LU489.60),LU(LU554.10),COMP,TILTX,TILTY,CHECK
1343619311,5810,897.2899780273438000,45.2859802246093750,661.3759765625000000,4.5826611518859860,54.2275314331054700,53,99,88,80,80,15373,2147758793,2147417846,2148009325,2147876681,2147641590,2147064274,2148259026,2147200868,456,4,13,50323
1343622907,5809,962.5700073242188000,47.4106101989746100,669.2141113281250000,4.3241581916809080,54.0206184387207000,53,100,86,80,80,15365,2147760210,2147421376,2148011062,2147874066,2147642185,2147062829,2148255853,2147199680,2130,5,13,40636
1343626507,5810,982.2399902343750000,47.6773185729980500,671.0960083007812000,4.2619857788085940,54.0060997009277340,53,97,91,79,81,15363,2147760576,2147417462,2148010614,2147875949,2147643236,2147056420,2148261028,2147199716,356,4,13,37223
1343630107,5812,990.7700195312500000,47.3096199035644500,670.5042724609375000,4.2815361022949220,54.0514411926269500,53,99,89,81,82,15362,2147757275,2147419821,2148007936,2147875611,2147644187,2147058477,2148257088,2147203428,29,5,13,26434
1343633707,5806,987.2199707031250000,47.3270187377929700,671.4072265625000000,4.2517008781433105,54.0604782104492200,53,100,86,78,81,15358,2147758546,2147416073,2148011227,2147873837,2147643190,2147062061,2148258962,2147203337,3532,4,13,42549
1343637307,5810,986.5900268554688000,47.4520416259765600,672.1226196289062000,4.2280559539794920,54.0526504516601560,52,101,88,79,80,15359,2147756416,2147419318,2148007808,2147874285,2147642166,2147057627,2148259437,2147200018,103,5,13,36216
1343640907,5811,993.3900146484375000,49.1448707580566400,672.8118896484375000,4.2052650451660160,53.8246116638183600,53,98,86,81,82,15358,2147757659,2147419657,2148010358,2147875172,2147640054,2147058230,2148259739,2147204032,380,5,13,55886
1343644507,5808,985.7500000000000000,48.7571105957031250,673.1970825195312000,4.1925258636474610,53.8845710754394500,52,100,87,79,81,15358,2147759469,2147417371,2148007780,2147876032,2147642880,2147061531,2148264338,2147201234,2803,4,13,4913
1343648107,5811,988.5999755859375000,49.8530693054199200,673.9274291992188000,4.1683750152587890,53.7398109436035160,53,97,85,78,82,15356,2147760393,2147421824,2148006976,2147878893,2147644278,2147063049,2148254829,2147200457,221,4,13,40142
1343651707,5808,991.9600219726562000,50.4788894653320300,673.5836181640625000,4.1797451972961430,53.6523704528808600,53,97,91,79,82,15359,2147761910,2147419382,2148006875,2147874614,2147640960,2147065664,2148262418,2147198436,40,5,13,57679
1343655307,5811,993.0100097656250000,49.9374084472656250,673.8010864257812000,4.1725478172302250,53.7233695983886700,52,97,90,78,81,15357,2147761984,2147420315,2148009060,2147875812,2147641088,2147059181,2148261275,2147196672,3504,4,13,38041
1343658907,5809,995.0900268554688000,49.5506515502929700,673.4047241210938000,4.1856632232666020,53.7727394104003900,53,97,90,79,82,15357,2147760768,2147423332,2148008201,2147871789,2147644827,2147060626,2148261714,2147198125,75,5,13,58048
1343662507,5807,990.7800292968750000,49.9039115905761700,674.2346191406250000,4.1582112312316895,53.7347488403320300,53,199,88,79,82,15356,2147756690,2147421110,2148008676,2147876480,2147642916,2147064548,2148262308,2147202422,178,5,13,60296
1343666107,5810,1002.5399780273438000,50.6873016357421900,673.4935302734375000,4.1827259063720700,53.6179084777832000,53,101,86,80,81,15355,2147757842,2147418697,2148007250,2147873929,2147640009,2147055378,2148261641,2147201124,538,4,13,19275
1343669707,5809,997.6300048828125000,49.4527511596679700,673.3491821289062000,4.1874980926513670,53.7856483459472660,53,98,90,79,82,15357,2147762285,2147421321,2148006016,2147872877,2147642889,2147059913,2148266358,2147200905,3459,4,13,19250
1343673307,5808,1000.6400146484375000,49.4656181335449200,673.4255981445312000,4.1849708557128910,53.7859001159668000,52,98,87,79,82,15359,2147762240,2147419766,2148007131,2147875218,2147644726,2147056036,2148259126,2147205321,64,5,13,17627
1343676907,5808,995.7899780273438000,49.4973106384277340,673.5764160156250000,4.1799831390380860,53.7844696044921900,52,101,89,79,82,15355,2147757284,2147417892,2148008018,2147877129,2147644580,2147060306,2148260178,2147197668,680,5,13,36005
1343680507,5804,1002.4400024414062000,49.5517997741699200,673.3259277343750000,4.1882672309875490,53.7713012695312500,53,100,89,79,81,15353,2147759451,2147417654,2148009682,2147874349,2147644800,2147061339,2148261558,2147202340,247,5,13,2231
1343684107,5808,1006.6699829101562000,48.5986404418945300,672.6514282226562000,4.2105731964111330,53.8967704772949200,53,98,89,80,81,15352,2147760420,2147419821,2148010797,2147875904,2147641664,2147056566,2148262820,2147202304,3414,4,13,35298
1343687707,5811,1004.5900268554688000,47.8930091857910160,672.2399902343750000,4.2241730690002440,53.9909782409668000,52,98,91,79,81,15352,2147762925,2147418916,2148007542,2147874240,2147644260,2147056128,2148258880,2147201627,14,5,13,9443
1343691307,5810,1009.3499755859375000,47.4357299804687500,671.9752807617188000,4.2329239845275880,54.0552406311035160,53,99,90,80,82,15353,2147756772,2147420662,2148009042,2147875126,2147641179,2147062363,2148262756,2147204041,30,5,13,7801
1343694907,5810,1007.3699951171875000,47.4829788208007800,672.0839843750000000,4.2293300628662110,54.0499801635742200,53,98,87,79,82,15353,2147760832,2147418660,2148008978,2147875392,2147645586,2147064740,2148261760,2147201654,95,5,13,9608
1343698507,5810,1007.1099853515625000,47.2604293823242200,672.6840209960938000,4.2094941139221190,54.0835189819335940,52,103,88,79,82,15350,2147763456,2147421696,2148010477,2147873005,2147642340,2147062710,2148265581,2147203392,3137,4,13,51641
1343702107,5809,1006.9000244140625000,47.4097099304199200,672.7791137695312000,4.2063498497009280,54.0620918273925800,52,100,83,79,82,15351,2147759689,2147417737,2148008402,2147875712,2147644772,2147059392,2148260617,2147198939,187,5,13,32425
1343705707,5809,1011.5599975585938000,47.4471511840820300,672.0764160156250000,4.2295818328857420,54.0537185668945300,52,100,89,78,83,15350,2147762788,2147421083,2148006345,2147876123,2147646153,2147055908,2148259812,2147200018,255,4,13,58313
1343709307,5809,1006.0800170898438000,47.2673606872558600,672.6923217773438000,4.2092189788818360,54.0843200683593750,53,108,88,78,82,15351,2147759277,2147418166,2148010797,2147873974,2147645622,2147061787,2148266971,2147201856,3529,5,13,60408
1343712907,5807,1003.5100097656250000,48.2789497375488300,673.2501220703125000,4.1907749176025390,53.9501686096191400,52,97,89,79,81,15348,2147760521,2147417042,2148007853,2147874477,2147641289,2147061979,2148262656,2147200420,120,4,13,7751
1343716507,5809,1001.1099853515625000,49.7797584533691400,673.9879150390625000,4.1663718223571780,53.7491302490234400,52,100,88,79,82,15350,2147764928,2147420516,2148007140,2147874633,2147642477,2147062912,2148264850,2147200621,125,4,13,58525
1343720107,5806,1004.1799926757812000,50.0050811767578100,673.4025268554688000,4.1857361793518070,53.7127685546875000,53,99,89,78,81,15351,2147766034,2147420516,2148009984,2147874934,2147644818,2147059483,2148267364,2147198656,177,5,13,16876
1343723707,5809,996.7299804687500000,49.8920402526855500,674.5123291015625000,4.1490230560302730,53.7384109497070300,52,99,84,80,82,15351,2147759552,2147421302,2148007881,2147875840,2147641078,2147062208,2148258029,2147198390,150,5,13,52486
1343727307,5810,1000.7899780273438000,49.2296905517578100,675.5347290039062000,4.1151919364929200,53.8442802429199200,52,98,90,80,82,15350,2147761947,2147417654,2148010953,2147872402,2147643392,2147060370,2148266587,2147204553,3486,4,13,43676
1343730907,5808,999.3699951171875000,49.2267990112304700,675.6641845703125000,4.1109070777893070,53.8483009338378900,52,99,88,78,82,15349,2147765421,2147419456,2148011721,2147876352,2147643721,2147058038,2148263762,2147199872,37,5,13,19332
1343734507,5808,1011.1699829101562000,50.5608596801757800,673.8964843750000000,4.1693940162658690,53.6438598632812500,53,99,87,80,82,15351,2147760978,2147417691,2148010770,2147873920,2147641901,2147058825,2148262729,2147202532,263,5,13,26683
1343738107,5808,1002.2800292968750000,49.9106597900390600,673.6801757812500000,4.1765499114990230,53.7312507629394500,52,98,85,79,83,15352,2147761453,2147417709,2148008832,2147875245,2147644608,2147058624,2148260489,2147199616,3160,4,13,9791
1343741707,5807,1005.8900146484375000,49.7669601440429700,673.8767700195312000,4.1700458526611330,53.7521591186523440,53,107,87,78,81,15350,2147758464,2147417819,2148010816,2147876626,2147645385,2147060306,2148260973,2147199606,3473,4,13,39889
1343745307,5811,1013.4099731445312000,49.8122291564941400,673.5957031250000000,4.1793441772460940,53.7430992126464840,53,102,91,80,82,15351,2147760658,2147418139,2148012178,2147875456,2147643748,2147059081,2148261165,2147203620,3287,4,13,51380
1343748907,5810,1014.3099975585938000,48.7451896667480500,673.1715698242188000,4.1933708190917970,53.8820991516113300,54,98,89,78,81,15347,2147755904,2147422582,2148009234,2147874770,2147648137,2147063707,2148256301,2147200886,3152,4,13,6135
1343752507,5811,1005.2899780273438000,49.0487289428710940,673.8264770507812000,4.1717090606689450,53.8472518920898440,52,199,87,80,82,15349,2147762934,2147421284,2148008411,2147876955,2147643657,2147056923,2148258304,2147198436,3586,4,13,52849
1343756107,5807,1010.2000122070312000,49.6575584411621100,674.5377197265625000,4.1481838226318360,53.7735710144043000,53,99,87,81,83,15349,2147760155,2147421284,2148010285,2147876873,2147646116,2147058221,2148259492,2147197558,617,5,13,4128
1343759707,5809,1009.8599853515625000,50.1982192993164060,674.0374755859375000,4.1647319793701170,53.6933212280273440,52,97,87,82,82,15349,2147760457,2147418596,2148008301,2147876068,2147639981,2147056749,2148256493,2147200100,3571,4,13,29576
1343763307,5809,1012.5900268554688000,49.0448913574218750,673.1237182617188000,4.1949558258056640,53.8403091430664060,52,98,87,78,82,15344,2147757604,2147420416,2148008996,2147875419,2147641627,2147056475,2148263396,2147202825,3170,4,13,42774
1343764256,5809,1014.1799926757812000,48.4035682678222660,673.1906127929688000,4.1927428245544430,53.9347496032714840,53,98,88,79,82,15358,2147760292,2147422098,2148007012,2147874587,2147643629,2147065490,2148263049,2147199414,3128,4,13,59365
